Theta_e
345 347 349 348 350 350 349 350 350 351 352 352 350 350 350 351 349 348 347 348 350 350 353 354 352 349 351 352 351 349 351 351 351 351 350 350 347 347 348 350 349 350 347
344 346 349 349 351 352 352 352 351 351 350 349 349 350 351 351 352 353 350 352 352 353 352 351 349 350 351 350 350 350 350 347 350 352 351 348 349 348 349 349 346 346 347
345 347 350 351 352 350 349 350 350 350 350 350 352 352 352 352 353 353 353 352 353 352 352 352 351 351 352 351 351 351 350 350 347 345 346 348 351 349 348 348 347 348 349
346 348 350 349 350 349 349 349 350 350 350 351 351 351 352 352 352 353 352 351 351 351 349 350 347 343 347 345 346 348 348 348 346 341 342 346 349 349 348 348 346 348 347
347 349 349 349 348 348 347 348 350 351 351 348 349 351 353 352 351 351 352 351 348 348 350 349 347 345 343 344 345 346 347 350 350 350 344 342 347 349 348 341 342 345 345
348 348 348 348 347 348 349 343 341 351 352 351 351 351 352 351 353 352 350 349 345 344 342 341 342 342 342 342 344 346 347 348 351 350 347 340 340 345 342 344 340 344 343
348 348 347 348 349 341 344 350 346 339 349 348 347 351 351 351 351 350 348 344 340 339 338 339 339 339 344 345 345 345 347 347 347 347 348 347 340 347 349 348 348 342 345
345 349 348 350 344 338 348 350 347 345 345 347 349 350 350 349 346 344 343 342 337 334 334 336 338 341 344 343 343 343 344 345 344 345 348 345 340 346 349 348 345 340 341
347 350 350 345 343 349 350 348 349 349 348 345 346 345 344 342 341 341 338 337 337 337 333 335 339 341 341 341 341 340 340 342 343 342 339 338 336 336 345 349 348 347 346
350 349 345 343 350 348 346 347 345 346 343 343 342 341 341 339 340 339 338 338 338 337 334 334 337 340 340 339 339 339 339 339 340 342 339 330 335 332 335 347 344 343 347
351 348 344 343 344 342 345 347 341 339 338 339 339 339 338 340 339 338 338 339 340 340 338 336 337 338 340 339 338 337 340 341 343 342 342 336 331 333 346 348 337 335 342
349 346 342 339 341 343 348 347 348 348 349 349 349 350 349 349 349 348 348 347 347 348 347 344 346 343 343 344 344 346 344 344 342 338 337 334 331 332 336 347 344 337 339
346 345 339 338 341 345 347 349 350 351 349 349 349 349 350 350 351 349 351 350 349 347 348 350 349 341 340 343 343 341 343 344 342 342 338 339 340 333 334 338 341 343 343
346 341 338 338 340 345 347 348 350 347 348 348 349 351 349 349 349 348 349 348 345 346 346 349 349 347 341 339 342 339 343 343 342 339 338 337 339 340 333 333 337 342 342
345 341 336 338 342 344 344 347 350 349 348 344 346 347 348 347 348 349 348 346 347 347 347 349 349 342 338 338 339 337 340 338 337 340 341 338 342 342 343 344 341 341 341
343 341 336 339 342 342 343 344 346 348 350 341 340 344 347 348 348 347 349 346 346 348 347 347 342 339 338 338 338 343 339 339 340 343 343 343 341 341 343 344 344 341 345
344 342 338 337 338 341 346 346 346 346 347 346 345 339 341 346 350 348 345 345 344 346 348 345 342 339 339 344 341 343 345 345 347 347 348 348 348 347 345 346 346 346 344
345 346 343 342 344 348 348 347 347 346 346 344 346 348 343 346 347 348 345 348 345 346 349 349 348 347 345 344 343 344 346 346 345 347 346 345 344 343 343 344 344 344 346
349 344 346 348 348 348 346 346 347 349 349 344 346 347 347 346 350 346 344 348 348 345 345 349 348 347 347 347 344 343 343 345 346 347 347 347 345 346 344 344 344 345 345
349 349 344 345 348 348 346 346 351 347 344 347 348 348 349 347 349 346 348 349 349 349 349 348 348 349 349 348 348 349 348 346 345 345 346 346 346 347 345 346 346 345 343
349 348 347 342 350 348 349 349 351 349 348 348 348 349 350 349 349 346 349 350 351 350 350 349 350 350 351 348 349 352 350 347 346 345 348 346 347 346 348 348 348 349 347
348 348 345 344 349 350 348 347 351 349 349 349 349 349 350 350 349 349 350 350 349 350 352 350 351 350 352 351 351 349 350 350 345 349 347 348 347 347 345 342 346 347 349
348 348 347 348 349 349 347 349 350 351 351 349 350 349 348 347 348 348 348 348 348 348 350 348 350 349 350 351 351 351 353 352 347 349 348 346 347 347 347 348 342 342 344
348 348 347 349 350 348 347 350 350 351 350 350 349 348 347 347 347 346 344 344 344 345 346 347 348 348 349 349 349 345 349 350 353 354 349 348 346 344 348 349 349 347 344
349 349 349 347 348 349 347 348 350 351 349 349 349 347 343 346 347 343 340 341 341 339 338 338 338 338 338 338 341 342 341 343 344 346 348 346 345 344 346 341 347 350 348
348 349 349 348 347 348 349 348 349 348 350 348 346 344 345 341 340 339 339 338 337 337 334 333 332 331 331 330 330 332 334 340 341 343 343 340 342 344 340 345 339 345 347
Wind_Speed
7 7 7 8 9 10 11 13 13 14 15 14 15 14 15 15 15 15 15 15 16 14 14 14 15 14 12 13 13 12 13 13 14 12 12 14 14 12 12 12 13 12 12
11 8 9 9 9 10 10 12 13 14 14 13 14 14 14 15 15 15 15 14 15 15 14 14 13 12 12 12 11 11 12 12 12 11 10 11 11 11 11 11 12 11 11
12 10 10 10 9 10 10 11 11 13 13 13 13 13 14 14 14 14 15 14 15 14 14 13 13 12 11 11 10 11 11 10 9 9 9 7 9 10 10 10 9 11 11
13 12 11 10 9 9 9 10 11 11 11 13 13 13 13 13 13 13 13 14 13 13 12 12 12 13 13 12 10 9 8 8 9 8 5 5 6 7 8 9 8 8 8
14 13 10 9 9 8 9 8 10 9 9 11 12 12 12 13 11 12 12 11 11 10 10 10 10 10 10 8 6 5 4 2 3 6 4 2 3 6 6 7 7 6 7
14 12 10 8 8 8 8 7 7 10 11 11 11 11 11 11 10 10 10 10 9 9 9 9 9 9 7 6 5 5 5 6 5 6 3 2 1 3 5 6 6 7 6
13 11 9 7 7 7 9 7 6 8 9 8 9 10 10 8 9 9 9 9 9 9 9 9 9 7 5 4 4 6 8 5 4 4 6 3 1 2 3 5 5 7 7
14 10 8 8 7 8 8 8 6 8 8 8 8 8 9 8 8 8 9 9 9 9 9 9 8 7 4 2 2 5 8 7 5 3 2 4 3 3 4 4 6 5 7
13 11 9 8 9 6 6 8 8 8 7 9 9 9 9 8 8 8 9 9 10 9 9 8 6 3 1 1 2 4 7 7 6 5 3 4 4 6 6 5 4 4 4
11 10 10 10 8 9 8 8 10 10 10 10 10 10 8 8 8 7 8 9 9 9 9 8 5 3 2 3 4 5 6 6 6 5 5 3 5 6 5 3 2 7 9
10 9 10 10 10 11 12 11 12 12 11 9 9 9 7 7 8 10 9 8 8 7 6 5 5 3 3 6 5 5 6 7 8 7 7 5 6 5 1 2 6 10 8
12 12 11 12 12 14 13 13 12 11 9 7 7 7 6 4 4 5 5 5 4 3 4 4 2 3 1 1 2 3 5 5 6 5 4 6 7 1 4 6 8 13 10
13 12 14 14 14 13 13 11 10 8 7 7 8 6 5 2 3 4 4 5 5 5 4 6 6 4 5 6 5 4 3 6 7 3 4 5 8 5 8 5 8 1 13
16 15 15 15 14 12 11 8 6 7 8 9 10 10 9 8 8 6 6 7 4 2 2 5 7 7 7 6 7 4 4 6 8 8 6 8 10 10 10 9 7 10 6
16 19 19 18 15 12 9 8 6 6 5 5 7 6 6 8 9 10 10 7 4 2 1 4 5 8 9 8 8 8 6 8 9 11 9 10 11 13 15 14 11 14 12
19 20 22 22 18 13 9 8 7 7 5 3 5 6 4 5 5 5 7 5 3 1 2 1 3 3 4 4 7 9 8 11 13 15 16 16 17 19 20 18 15 11 15
23 22 23 22 19 15 13 12 11 9 8 6 4 6 6 4 7 9 8 5 4 2 2 1 4 2 6 12 10 12 14 16 19 20 21 21 19 19 19 18 18 17 10
25 25 24 23 20 17 14 14 15 15 12 11 8 4 5 5 3 5 4 2 4 3 2 1 4 8 12 16 18 17 17 17 19 19 18 17 18 18 18 17 18 19 11
29 27 26 23 21 17 11 12 10 10 12 12 10 8 5 5 5 2 3 0 1 1 1 0 4 7 10 12 15 18 18 18 18 18 16 15 16 16 17 17 17 17 15
31 29 27 23 21 18 15 14 12 10 10 9 11 11 8 7 6 4 1 2 4 5 5 4 3 6 9 10 12 17 17 18 18 17 15 15 15 18 16 16 18 17 16
31 30 29 28 25 23 20 17 13 11 11 9 9 11 14 12 8 8 8 5 3 4 4 4 5 7 9 7 10 14 17 14 13 13 9 20 15 17 17 16 17 18 17
35 35 30 32 30 27 24 22 17 14 12 11 8 7 9 9 8 9 10 9 7 8 7 4 3 4 5 2 4 5 3 12 4 16 23 17 23 16 23 21 20 18 16
29 36 35 32 31 28 25 23 14 14 11 11 10 8 7 4 7 7 4 5 5 7 5 5 4 5 5 5 7 5 2 2 9 15 24 15 21 23 20 23 19 19 17
32 36 37 36 31 26 24 23 19 17 14 13 12 8 4 2 3 2 1 3 2 1 3 3 2 4 5 7 6 8 8 10 3 5 9 17 17 20 20 20 19 17 16
26 33 37 36 32 27 23 23 20 17 14 10 10 6 4 4 3 5 6 8 10 10 10 9 8 8 8 9 10 8 9 11 11 4 5 15 23 16 16 23 21 17 14
25 26 31 35 34 29 26 22 20 19 16 13 9 9 8 10 10 8 6 5 6 7 9 9 9 9 10 10 11 12 11 5 10 7 6 16 18 18 30 15 21 16 14
Wind_Direction
154 138 129 130 121 110 106 104 102 102 102 102 104 106 102 103 102 96 96 91 94 95 88 89 89 89 88 89 88 85 79 73 72 77 86 90 86 87 90 95 99 96 99
142 131 141 130 116 105 100 98 97 99 100 104 108 104 103 105 103 99 97 94 93 90 89 84 83 89 89 90 93 95 86 80 79 77 89 93 85 94 94 96 97 100 105
136 128 133 117 113 109 111 110 107 106 102 101 99 102 101 102 97 97 94 93 91 87 85 82 85 86 89 88 88 85 86 88 77 72 86 97 93 90 95 104 106 116 123
136 131 125 122 116 117 108 107 104 108 107 102 99 101 103 101 99 94 92 91 88 86 91 97 98 94 91 90 91 79 71 73 67 63 74 84 88 102 111 109 112 117 120
137 133 127 125 116 115 110 108 111 110 106 109 105 104 104 103 105 100 94 94 99 101 102 102 101 98 96 93 80 58 46 35 337 345 14 63 115 118 116 116 131 125 132
137 136 137 131 128 117 124 126 128 119 110 110 112 113 107 108 107 95 91 93 98 95 102 109 104 102 99 86 53 15 351 318 302 284 295 22 153 135 146 152 141 152 153
139 136 134 131 127 126 122 119 113 137 129 121 128 116 114 106 97 93 93 94 96 107 115 115 117 117 101 72 36 18 2 1 333 269 246 298 215 185 200 177 190 170 163
140 137 134 131 139 128 115 108 129 129 129 124 115 111 106 98 96 95 89 86 89 100 116 128 135 130 111 92 46 17 11 11 18 36 236 263 248 217 230 226 222 200 181
145 148 149 145 126 117 116 129 129 118 125 121 117 115 109 105 98 90 91 89 87 91 100 119 129 123 132 318 331 352 347 356 354 345 299 247 220 225 228 249 276 274 243
154 155 150 145 145 138 138 125 131 130 125 125 124 117 115 118 106 106 96 92 90 94 110 130 147 163 226 278 299 317 329 329 341 321 309 284 239 230 205 205 323 281 262
164 159 153 148 147 138 129 121 118 114 113 119 119 111 111 113 109 102 96 90 94 104 116 144 156 172 259 259 265 292 313 324 324 321 306 301 275 255 319 301 242 245 248
173 165 160 154 147 139 133 132 124 123 119 120 110 105 96 100 131 138 113 108 127 152 180 194 200 249 275 333 249 292 324 340 335 348 338 314 302 274 319 186 238 266 298
174 171 162 161 156 150 142 142 136 132 131 138 130 114 89 98 159 166 184 171 178 190 208 222 218 231 314 331 337 301 321 344 355 329 327 323 320 286 256 196 213 300 274
177 174 172 171 165 156 156 157 153 143 134 117 118 125 87 79 82 107 142 151 137 181 231 216 221 261 287 297 329 339 343 329 338 344 313 295 296 307 276 260 240 222 3
189 178 178 178 176 172 172 174 173 161 153 146 142 139 119 90 94 93 116 121 127 65 295 191 225 244 289 280 326 342 313 336 346 346 350 336 308 307 308 300 255 256 251
189 186 182 184 184 185 192 198 191 191 185 175 155 157 117 74 72 105 102 100 107 22 91 133 313 280 267 331 316 354 338 334 341 348 339 331 315 308 311 314 312 267 246
192 188 190 191 192 204 216 228 217 201 216 226 228 210 185 141 96 114 109 84 67 83 86 13 336 313 331 330 342 335 340 325 335 337 334 332 328 325 322 317 317 311 321
201 197 195 198 204 214 229 225 218 219 241 243 220 210 225 206 163 151 137 116 62 115 96 55 360 345 345 347 337 335 336 332 332 336 348 2 3 356 353 343 328 320 330
205 206 203 206 213 213 191 168 174 211 239 241 240 237 207 199 211 231 229 162 141 125 162 277 342 339 340 342 337 331 326 322 321 323 331 350 348 340 341 345 341 327 324
209 210 209 206 207 205 194 186 192 199 207 236 241 229 227 222 211 217 266 230 185 206 203 219 279 311 312 318 324 326 324 319 306 312 314 337 342 340 338 347 349 347 336
214 213 210 209 204 204 197 194 198 197 203 213 224 246 230 228 237 228 230 244 225 196 230 245 293 291 311 312 320 324 314 314 310 309 339 335 332 339 350 341 344 347 341
210 212 212 210 206 208 213 205 204 203 207 221 227 222 204 213 223 238 235 246 253 258 253 264 281 316 326 333 327 320 327 319 326 322 320 326 320 321 319 322 322 327 339
203 210 213 210 211 212 213 205 196 193 203 202 208 206 212 222 233 243 275 270 241 256 264 283 321 318 301 315 337 313 320 291 330 319 315 317 320 321 320 319 314 315 318
205 211 214 212 213 215 212 207 199 191 186 203 213 213 199 201 193 199 321 333 338 310 31 70 33 24 9 19 2 359 310 299 297 314 323 309 324 320 324 322 323 319 312
200 206 213 215 215 217 213 215 216 208 211 210 202 180 155 158 138 107 106 105 95 95 84 82 69 62 53 43 43 6 7 359 27 308 314 328 327 324 334 324 319 319 322
200 204 213 215 217 219 218 216 220 219 208 185 179 153 153 140 120 108 101 94 85 79 74 74 80 68 61 57 48 44 35 15 346 344 317 321 320 319 319 330 329 336 336